Simultaneous Nadir Overpasses (SNOs) Predictions

Prediction of SNOs between METOP-A and TERRA Satellite Orbit:

Table of predicted SNOs for the next 14.0 days since TLE Epoch: 3/6/2021
Index Date (METOP-A) Time (METOP-A) Lat,Lon (METOP-A) SZA (METOP-A ) Date (TERRA) Time (TERRA) Lat,Lon (TERRA) SZA (TERRA ) Distance(km) Time Diff (sec)
1 03/06/2021 18:41:46 81.34, -53.27 89.12 03/06/2021 18:42:44 81.36, -53.11 89.17 3.08 58
2 03/06/2021 19:32:26 -81.34, 114.24 90.88 03/06/2021 19:32:12 -81.33, 114.05 90.91 3.19 14
3 03/09/2021 14:16:08 81.35, 13.02 88.04 03/09/2021 14:16:58 81.34, 13.10 88.06 1.30 50
4 03/09/2021 15:06:48 -81.34,-179.45 91.97 03/09/2021 15:06:25 -81.34,-179.33 91.96 2.02 23
5 03/12/2021 09:50:29 81.34, 79.69 86.97 03/12/2021 09:51:11 81.35, 79.65 87.00 1.83 42
6 03/12/2021 10:41:10 -81.34,-113.16 93.06 03/12/2021 10:40:39 -81.33,-113.14 93.08 1.51 31
7 03/15/2021 05:24:50 81.34, 145.95 85.88 03/15/2021 05:25:24 81.33, 145.78 85.87 2.83 34
8 03/15/2021 06:15:30 -81.33, -46.49 94.12 03/15/2021 06:14:51 -81.33, -46.60 94.15 1.82 39
9 03/18/2021 00:59:12 81.34,-147.81 84.78 03/18/2021 00:59:37 81.34,-147.74 84.79 1.17 25



Historial Predications of SNOs between METOP-A and TERRA
